[[{"header":{"parameterUnit":"m.s-1","parameterCategory":1,"la1":30.2991,"la2":30.254,"lo1":-89.0895,"lo2":-89.0444,"dy":0.0017,"dx":0.0017,"nx":28,"ny":28,"refTime":"2024-06-24T03:00:00:Z","depth":0,"parameterNumber":2,"parameterNumberName":"U-component_of_WINDS"},"data":[0,0,0,0,0,0,0,0,0,0,0,0,0,0,0,0,0,0,0,0,0,0,0,0,0,0,0,0,0,0,0,0,0,0,0,0,0,0,0,0,0,0,0,0,0,0,0,0,0,0,0,0,0,0,0,0,0,0,2.6559,2.656,0,2.6647,2.6648,2.6649,2.6614,2.6612,2.661,2.6608,2.6698,2.6702,2.6706,0,0,0,0,0,0,0,0,0,0,0,0,0,2.6361,2.6365,2.6559,2.656,2.6561,2.6647,2.6648,2.665,2.6615,2.6612,2.661,2.6607,2.6697,2.6702,2.6707,0,0,0,0,0,0,0,0,0,0,0,0,0,2.6448,2.6366,2.6559,2.6554,2.6555,2.6647,2.6649,2.665,2.6615,2.6612,2.6609,2.6606,2.6695,2.6701,2.6708,2.6809,0,0,2.6727,2.673,0,0,0,0,0,0,0,0,2.6443,2.6455,2.6554,2.6555,2.6556,2.6617,2.6611,2.6703,2.6616,2.6592,2.6608,2.6605,2.6673,2.6681,2.6705,2.6814,2.6817,2.6728,2.6732,2.6735,2.6736,0,0,0,0,0,0,0,2.6437,2.6451,2.6594,2.6555,2.6556,2.6548,2.6557,2.6629,2.6649,2.6594,2.6592,2.6603,2.6673,2.6699,2.6707,2.6819,2.6728,2.6733,2.6737,2.674,2.7016,2.702,0,0,0,0,0,0,2.6431,2.6446,2.6591,2.6597,2.649,2.6554,2.6564,2.66,2.6648,2.6653,2.6605,2.6601,2.6689,2.6699,2.671,2.6832,2.6735,2.6741,2.6744,2.7013,2.7017,2.7021,0,0,0,0,0,0,2.6427,2.6444,2.6588,2.6521,2.6539,2.6561,2.6602,2.6604,2.6629,2.6657,2.666,2.6627,2.6687,2.6701,2.6785,2.6835,2.6744,2.6749,2.7009,2.7014,2.7019,2.7078,0,0,0,0,0,0,2.6421,2.6443,2.6481,2.6522,2.6542,2.6662,2.6605,2.6608,2.664,2.6635,2.6678,2.6683,2.6686,2.6776,2.6791,2.6842,2.6754,2.7004,2.7011,2.7017,2.7072,2.7084,2.7096,0,0,0,0,0,2.6414,2.6494,2.6484,2.6501,2.6591,2.6665,2.6676,2.6678,2.6644,2.6684,2.6702,2.6681,2.6827,2.6785,2.6802,2.6855,2.7001,2.7009,2.7017,2.7066,2.7082,2.7095,0,0,0,0,0,0,2.6458,2.65,2.6488,2.6584,2.6621,2.6659,2.6708,2.6695,2.6742,2.6735,2.6736,2.6746,2.6833,2.6853,2.6805,2.6957,2.6909,2.6921,2.6941,2.6956,2.6967,2.696,2.676,0,0,0,0,0,2.6479,2.6536,2.6569,2.665,2.6669,2.6686,2.6718,2.6716,2.6755,2.677,2.6794,2.6832,2.6887,2.6922,2.6974,2.7075,2.7084,2.712,2.7132,2.7142,2.7152,2.7206,2.7223,2.7046,2.7046,2.7046,0,0,2.6523,2.6553,2.6588,2.666,2.6688,2.6746,2.6699,2.6762,2.6806,2.678,2.6861,2.688,2.6923,2.7016,2.7058,2.7035,2.7203,2.7152,2.7159,2.7164,2.7216,2.7233,2.7248,2.7052,2.7051,2.705,0,0,2.6632,2.6661,2.6732,2.6762,2.6806,2.6816,2.6834,2.6874,2.6886,2.6967,2.6949,2.7001,2.7094,2.7126,2.7154,2.7277,2.726,2.7293,2.7355,2.7409,2.7423,2.7435,2.7479,2.7494,2.7303,2.7304,2.7304,0,2.6681,2.6768,2.677,2.6835,2.6867,2.6847,2.6919,2.6948,2.7007,2.703,2.7003,2.7121,2.7148,2.7248,2.7278,2.7302,2.7321,2.7288,2.7421,2.7433,2.7445,2.7486,2.7503,2.7307,2.7307,2.7306,2.7306,0,2.6826,2.6886,2.6939,2.6996,2.7035,2.7103,2.7115,2.7154,2.7149,2.7163,2.7247,2.7279,2.7337,2.7361,2.7357,2.7461,2.7445,2.742,2.7372,2.7465,2.7504,2.752,2.7313,2.7311,2.731,2.7309,0,0,2.6964,2.7023,2.7042,2.7068,2.7116,2.7163,2.7231,2.7288,2.7321,2.7363,2.742,2.75,2.7477,2.7509,2.7509,2.7556,2.7651,2.7525,2.7526,2.7547,2.7768,2.7786,2.7804,2.7641,2.7644,2.7646,2.7764,0,2.7076,2.7195,2.7199,2.7308,2.7364,2.7347,2.7406,2.7442,2.7457,2.7507,2.7523,2.758,2.7546,2.7565,2.7611,2.763,2.7696,2.7622,2.7693,2.7696,2.7682,2.7825,2.7844,2.7954,2.778,2.7782,2.7784,0,2.7223,2.727,2.7385,2.7425,2.7449,2.7502,2.7555,2.7604,2.7644,2.7652,2.7688,2.7682,2.7751,2.7702,2.7797,2.7747,2.7777,2.7791,2.7795,2.7801,2.7745,2.7834,2.7989,2.8005,2.7808,2.7806,2.7804,0,2.7312,2.7404,2.7484,2.7508,2.7557,2.7595,2.7617,2.7655,2.769,2.7736,2.7758,2.7813,2.7842,2.7884,2.7892,2.7855,2.7988,2.7939,2.7996,2.7996,2.8024,2.8022,2.8185,2.8045,2.8044,2.8044,2.8044,0,2.7437,2.7507,2.7525,2.7574,2.7653,2.7658,2.7736,2.7755,2.7789,2.7842,2.7831,2.7881,2.7889,2.7941,2.7948,2.8026,2.8039,2.8047,2.8048,2.8048,2.8047,2.8067,2.8059,2.8048,2.8047,2.8047,2.8046,0,2.7549,2.7563,2.765,2.769,2.7702,2.7759,2.7793,2.7841,2.7855,2.7922,2.7938,2.796,2.8021,2.8034,2.8105,2.811,2.8203,2.8197,2.8189,2.8188,2.8244,2.8239,2.8425,2.8449,2.8294,2.8295,2.8297,0,2.7627,2.7681,2.7728,2.7763,2.7787,2.7843,2.7879,2.7886,2.7923,2.7974,2.8015,2.8075,2.8123,2.8221,2.8243,2.8298,2.8292,2.8354,2.83,2.8299,2.8293,2.8289,2.8295,2.8364,2.8365,2.8367,2.8368,0,2.7764,2.7769,2.782,2.7875,2.7918,2.7961,2.8002,2.8031,2.8044,2.8086,2.8148,2.8186,2.8259,2.8319,2.8374,2.8397,2.8385,2.8385,2.8401,2.8401,2.8394,2.8398,2.8216,2.838,2.8379,2.8378,2.8377,2.8377,2.7861,2.7908,2.7949,2.8007,2.8039,2.8078,2.8125,2.8145,2.8197,2.8258,2.8259,2.8327,2.8367,2.844,2.8467,2.852,2.8501,2.8524,2.853,2.8535,2.854,2.8386,2.853,2.853,2.853,2.8529,2.8529,0,2.7997,2.8023,2.8076,2.8134,2.818,2.8166,2.8211,2.825,2.831,2.8349,2.8397,2.8468,2.8526,2.8554,2.8611,2.8648,2.8644,2.8663,2.866,2.8665,2.8554,2.8535,2.8665,2.8665,2.8665,2.8665,2.8665,2.8665,2.8073,2.8153,2.8163,2.8258,2.8284,2.835,2.8377,2.8413,2.8444,2.8525,2.8573,2.8591,2.8626,2.8685,2.8738,2.8744,2.8766,2.8787,2.8791,2.8687,2.8673,2.866,2.8641,2.8792,2.8792,2.8897,2.8898,2.8899]},{"header":{"parameterUnit":"m.s-1","parameterCategory":1,"la1":30.2991,"la2":30.254,"lo1":-89.0895,"lo2":-89.0444,"dy":0.0017,"dx":0.0017,"nx":28,"ny":28,"refTime":"2024-06-24T03:00:00:Z","depth":0,"parameterNumber":3,"parameterNumberName":"V-component_of_WINDS"},"data":[0,0,0,0,0,0,0,0,0,0,0,0,0,0,0,0,0,0,0,0,0,0,0,0,0,0,0,0,0,0,0,0,0,0,0,0,0,0,0,0,0,0,0,0,0,0,0,0,0,0,0,0,0,0,0,0,0,0,4.1617,4.1619,0,4.1834,4.1837,4.1839,4.1862,4.186,4.1858,4.1856,4.2072,4.2079,4.2087,0,0,0,0,0,0,0,0,0,0,0,0,0,4.1214,4.1221,4.1616,4.1619,4.1622,4.1834,4.1837,4.184,4.1863,4.186,4.1857,4.1855,4.2069,4.2079,4.2088,0,0,0,0,0,0,0,0,0,0,0,0,0,4.1406,4.1224,4.1616,4.1659,4.1665,4.1833,4.1837,4.1841,4.1863,4.186,4.1857,4.1854,4.2066,4.2078,4.2089,4.2227,0,0,4.2125,4.213,0,0,0,0,0,0,0,0,4.1395,4.142,4.165,4.1656,4.1663,4.1818,4.1774,4.197,4.1864,4.1788,4.1856,4.1852,4.199,4.2007,4.2055,4.2237,4.2247,4.2126,4.2133,4.2138,4.2141,0,0,0,0,0,0,0,4.1382,4.1411,4.1702,4.1653,4.1661,4.1665,4.1689,4.1811,4.1904,4.1794,4.1796,4.1822,4.1993,4.2044,4.206,4.225,4.2126,4.2136,4.2143,4.2148,4.2557,4.2561,0,0,0,0,0,0,4.1361,4.14,4.1695,4.1709,4.1519,4.1675,4.1702,4.1772,4.1903,4.192,4.1825,4.1823,4.2026,4.2047,4.2068,4.224,4.2138,4.2149,4.2156,4.2553,4.2558,4.2562,0,0,0,0,0,0,4.1352,4.1387,4.1687,4.1555,4.1594,4.1686,4.1764,4.1778,4.1829,4.1926,4.1942,4.1861,4.2024,4.2052,4.2188,4.2247,4.2154,4.2165,4.2549,4.2555,4.256,4.2583,0,0,0,0,0,0,4.1341,4.1384,4.1439,4.1556,4.1601,4.1805,4.1768,4.1784,4.185,4.1849,4.1964,4.198,4.2023,4.2171,4.22,4.2262,4.2174,4.2544,4.2551,4.2558,4.2577,4.2589,4.2599,0,0,0,0,0,4.1326,4.1435,4.1442,4.1477,4.1672,4.1809,4.1834,4.1883,4.1855,4.191,4.1972,4.1976,4.2236,4.2185,4.2218,4.2284,4.254,4.2549,4.2557,4.2573,4.2587,4.2598,0,0,0,0,0,0,4.1319,4.1451,4.146,4.161,4.1698,4.1812,4.1883,4.1896,4.1993,4.1987,4.2042,4.2068,4.2203,4.2257,4.2197,4.2425,4.2385,4.2401,4.2385,4.2399,4.241,4.2394,4.2184,0,0,0,0,0,4.1336,4.1438,4.1547,4.1669,4.1713,4.179,4.1852,4.1883,4.1975,4.2012,4.2084,4.2172,4.2274,4.2339,4.2438,4.2585,4.261,4.2647,4.2657,4.2665,4.2678,4.2761,4.2779,4.259,4.259,4.259,0,0,4.137,4.1454,4.1515,4.1669,4.1741,4.1845,4.1822,4.1931,4.2008,4.2028,4.2163,4.2218,4.232,4.2463,4.2529,4.2512,4.2736,4.2677,4.2682,4.2691,4.2772,4.2789,4.2805,4.2596,4.2595,4.2594,0,0,4.1485,4.1559,4.167,4.1743,4.1853,4.1904,4.1931,4.2044,4.2083,4.2219,4.2236,4.2327,4.25,4.2572,4.2631,4.2775,4.2782,4.2805,4.2861,4.294,4.2955,4.2969,4.302,4.3038,4.2817,4.2818,4.2818,0,4.1513,4.1671,4.1724,4.1835,4.1902,4.1927,4.2039,4.2106,4.2242,4.2287,4.2266,4.2485,4.2555,4.2716,4.2751,4.2798,4.2829,4.2792,4.2949,4.2963,4.2976,4.3026,4.3046,4.282,4.2819,4.2819,4.2819,0,4.17,4.181,4.1885,4.2019,4.2095,4.2205,4.2273,4.2343,4.2367,4.2419,4.2558,4.2643,4.276,4.2799,4.2823,4.2964,4.295,4.2938,4.29,4.2996,4.3044,4.3063,4.2823,4.2822,4.2821,4.2821,0,0,4.1817,4.198,4.2007,4.2069,4.2192,4.2277,4.2387,4.2505,4.2563,4.2656,4.275,4.2896,4.2887,4.2954,4.2986,4.3056,4.3165,4.3036,4.3039,4.3058,4.3326,4.3334,4.3355,4.317,4.3174,4.3177,4.3317,0,4.1947,4.2149,4.22,4.2371,4.2472,4.2498,4.2594,4.268,4.2732,4.2824,4.288,4.2984,4.2964,4.3005,4.3075,4.3137,4.322,4.3127,4.3257,4.3261,4.3232,4.3381,4.339,4.3518,4.3336,4.334,4.3342,0,4.2126,4.2226,4.2407,4.2519,4.2564,4.265,4.2762,4.285,4.2947,4.298,4.3056,4.3081,4.3195,4.315,4.3309,4.3245,4.3301,4.3339,4.3345,4.336,4.3308,4.34,4.356,4.3579,4.3372,4.3369,4.3367,0,4.2194,4.2373,4.2506,4.2557,4.2691,4.2751,4.2808,4.2902,4.297,4.3066,4.311,4.3218,4.3277,4.3358,4.3411,4.3373,4.3565,4.3524,4.3595,4.3594,4.3635,4.3632,4.3807,4.3669,4.3669,4.3669,4.3668,0,4.2335,4.2445,4.2539,4.262,4.2744,4.2801,4.2921,4.2979,4.3063,4.3155,4.3182,4.3267,4.3331,4.3425,4.3466,4.3591,4.3617,4.3646,4.3656,4.3645,4.3641,4.3682,4.3675,4.3674,4.3673,4.3672,4.3671,0,4.2432,4.2499,4.2646,4.2761,4.2792,4.2878,4.2976,4.3055,4.3108,4.3224,4.3254,4.3337,4.3449,4.351,4.3648,4.3676,4.3816,4.3821,4.3785,4.3789,4.3857,4.385,4.4066,4.4097,4.3937,4.3939,4.394,0,4.2518,4.2604,4.2729,4.2794,4.2854,4.2957,4.3027,4.3086,4.3157,4.3274,4.3339,4.3453,4.3547,4.3723,4.3794,4.3901,4.3908,4.3977,4.3924,4.391,4.391,4.3905,4.3914,4.3986,4.3987,4.3988,4.3989,0,4.2663,4.2693,4.2793,4.2907,4.299,4.308,4.317,4.3221,4.3294,4.3372,4.3488,4.3561,4.3705,4.3817,4.3929,4.3986,4.4,4.4005,4.4028,4.4017,4.3993,4.4008,4.3811,4.4,4.3999,4.3998,4.3998,4.3997,4.2758,4.2836,4.2937,4.3049,4.3123,4.3207,4.3288,4.3352,4.345,4.3574,4.3601,4.3724,4.3818,4.3971,4.4031,4.4126,4.4113,4.4144,4.4153,4.416,4.4163,4.3977,4.4146,4.4146,4.4146,4.4146,4.4145,0,4.2906,4.2972,4.3075,4.3201,4.3289,4.3296,4.3396,4.3468,4.3577,4.3665,4.3758,4.3891,4.4,4.408,4.4191,4.4252,4.4261,4.4279,4.4275,4.4288,4.4168,4.4138,4.427,4.427,4.427,4.427,4.427,4.427,4.2993,4.3126,4.3167,4.3337,4.3402,4.3525,4.3581,4.3658,4.3729,4.3878,4.397,4.4022,4.4107,4.4224,4.4324,4.4345,4.4385,4.4402,4.4423,4.431,4.4297,4.4284,4.4256,4.441,4.4411,4.4536,4.4537,4.4538]}]]